{"data":{"norad_id":50829,"epoch":"2026-05-25T03:21:43.655040Z","epoch_age_seconds":53045,"freshness":"FRESH","line1":"1 50829U 22001AC  26145.14008860 -.00000238  00000+0  31360-5 0  9995","line2":"2 50829  53.2123 185.9216 0001169  94.4052 265.7074 15.08835327241948","mean_motion":15.08835327,"eccentricity":0.0001169,"inclination_deg":53.2123,"raan_deg":185.9216,"arg_perigee_deg":94.4052,"mean_anomaly_deg":265.7074,"bstar":3.136e-6,"rev_number":24194,"period_min":95.437850256538,"perigee_km":538.94897060529,"apogee_km":540.56637437972,"semimajor_km":6917.8946724925,"source":"CELESTRAK","updated_at":"2026-05-25T13:38:16.879338Z"}}